EW7966 Weather Reports


time (UTC)temp
F
wind
direction
speed
knots
gust
knots
rain 1hr
in
rain 24hr
in
rain mn
in
humidity
%
barometer
mb
20260831160505 73 294 1.7 4.3 0.00 0.02 0.00 39 1022.6
20260831160007 73 63 1.7 3.5 0.00 0.02 0.00 38 1022.6
20260831160003 73 63 0.9 3.5 0.00 0.02 0.00 38 1008.5
20260831155505 72 215 1.7 3.5 0.00 0.02 0.00 38 1022.5
20260831155008 72 215 1.7 2.6 0.00 0.02 0.00 43 1022.5
20260831154504 71 215 0.9 3.5 0.00 0.02 0.00 44 1008.3
20260831154002 71 215 0.9 3.5 0.00 0.02 0.00 46 1022.6
20260831153505 70 215 0.0 2.6 0.00 0.02 0.00 50 1022.4
20260831153009 70 215 0.9 4.3 0.00 0.02 0.00 52 1008.2
20260831153007 70 215 0.9 4.3 0.00 0.02 0.00 52 1022.4
20260831152505 69 215 1.7 4.3 0.00 0.02 0.00 52 1022.4
20260831152006 69 215 1.7 5.2 0.00 0.02 0.00 53 1022.4
20260831151506 69 215 2.6 5.2 0.00 0.02 0.00 51 1022.4
20260831151503 69 215 1.7 5.2 0.00 0.02 0.00 51 1008.3
20260831151005 69 258 0.9 4.3 0.00 0.02 0.00 53 1022.4
20260831150506 68 205 2.6 5.2 0.00 0.02 0.00 51 1022.3
20260831150007 68 205 2.6 5.2 0.00 0.02 0.00 51 1022.4
20260831150004 68 205 1.7 5.2 0.00 0.02 0.00 51 1008.3
20260831145504 68 192 2.6 5.2 0.00 0.02 0.00 52 1022.4
20260831144558 68 235 0.9 7.0 0.00 0.02 0.00 54 1008.2
20260831144505 68 235 1.7 7.0 0.00 0.02 0.00 54 1022.4
20260831144502 68 235 1.7 7.0 0.00 0.02 0.00 54 1008.2
20260831144005 67 221 2.6 7.0 0.00 0.02 0.00 53 1022.4
20260831143505 67 223 4.3 7.0 0.00 0.02 0.00 52 1022.3
20260831143006 66 190 3.5 4.3 0.00 0.02 0.00 54 1022.3
20260831143003 66 190 2.6 4.3 0.00 0.02 0.00 54 1008.2
20260831142505 66 175 2.6 4.3 0.00 0.02 0.00 56 1022.2
20260831142006 65 175 3.5 4.3 0.00 0.02 0.00 54 1022.2
20260831141505 65 205 1.7 4.3 0.00 0.02 0.00 55 1008.1
20260831141005 64 214 1.7 5.2 0.00 0.02 0.00 55 1022.1
20260831140008 64 236 2.6 5.2 0.00 0.02 0.00 56 1022.1
20260831140003 64 236 2.6 5.2 0.00 0.02 0.00 56 1008.0
20260831135504 64 227 3.5 6.1 0.00 0.02 0.00 58 1022.1
20260831135005 64 225 3.5 6.1 0.00 0.02 0.00 57 1022.1
20260831134503 63 217 3.5 5.2 0.00 0.02 0.00 57 1007.9
20260831133506 62 236 3.5 7.0 0.00 0.02 0.00 58 1021.8
20260831133006 62 198 2.6 4.3 0.00 0.02 0.00 60 1007.8
20260831132504 61 215 1.7 5.2 0.00 0.02 0.00 61 1021.7
20260831132006 61 177 2.6 5.2 0.00 0.02 0.00 61 1021.6
20260831131505 60 221 2.6 5.2 0.00 0.02 0.00 61 1021.5
20260831131006 59 203 2.6 4.3 0.00 0.02 0.00 62 1021.4
20260831130505 59 226 1.7 3.5 0.00 0.02 0.00 63 1021.3
20260831130007 59 226 1.7 3.5 0.00 0.02 0.00 63 1021.2
20260831130003 59 226 0.9 3.5 0.00 0.02 0.00 63 1007.2
20260831125505 59 226 1.7 3.5 0.00 0.02 0.00 63 1021.0
20260831125006 59 226 0.9 2.6 0.00 0.02 0.00 62 1021.0
20260831124504 59 226 0.0 3.5 0.00 0.02 0.00 62 1006.9
20260831124005 59 226 1.7 5.2 0.00 0.02 0.00 61 1020.9
20260831123504 59 226 1.7 5.2 0.00 0.02 0.00 62 1020.8
20260831123005 59 232 2.6 6.1 0.00 0.02 0.00 62 1020.7
20260831123003 59 232 1.7 6.1 0.00 0.02 0.00 62 1006.7
20260831122504 59 229 2.6 6.1 0.00 0.02 0.00 62 1020.7
20260831122006 59 233 1.7 4.3 0.00 0.02 0.00 63 1020.7
20260831121505 58 233 1.7 5.2 0.00 0.02 0.00 64 1020.6
20260831120506 58 229 0.9 2.6 0.00 0.02 0.00 65 1020.7
20260831120007 58 229 1.7 2.6 0.00 0.02 0.00 65 1020.9
20260831120004 58 229 0.9 2.6 0.00 0.02 0.00 65 1006.8
20260831115006 57 229 1.7 3.5 0.00 0.02 0.00 67 1020.7
20260831114505 57 229 1.7 2.6 0.00 0.02 0.00 68 1006.6
20260831114004 57 229 0.9 1.7 0.00 0.02 0.00 68 1020.6
20260831113007 57 229 0.9 2.6 0.00 0.02 0.00 67 1020.6
20260831112504 58 229 0.9 2.6 0.00 0.02 0.00 67 1020.6
20260831112007 58 229 0.0 2.6 0.00 0.02 0.00 67 1020.5
20260831111505 58 229 0.9 4.3 0.00 0.02 0.00 66 1020.5
20260831111503 58 229 0.9 4.3 0.00 0.02 0.00 66 1006.3
20260831111005 59 229 0.9 4.3 0.00 0.02 0.00 65 1020.5
20260831110505 59 229 1.7 4.3 0.00 0.02 0.00 65 1020.5
20260831110006 59 217 1.7 5.2 0.00 0.02 0.00 65 1020.4
20260831105505 59 232 2.6 5.2 0.00 0.02 0.00 65 1020.4
20260831105004 59 202 2.6 5.2 0.00 0.02 0.00 65 1020.4
20260831104505 59 220 2.6 6.1 0.00 0.02 0.00 65 1020.3
20260831104503 59 220 2.6 6.1 0.00 0.02 0.00 65 1006.1
20260831104005 59 246 0.9 3.5 0.00 0.02 0.00 65 1020.3
20260831103505 60 246 1.7 5.2 0.00 0.02 0.00 63 1020.3
20260831103005 60 236 3.5 7.0 0.00 0.02 0.00 62 1020.4
20260831103003 60 236 3.5 7.0 0.00 0.02 0.00 62 1006.2
20260831102504 60 234 2.6 7.0 0.00 0.02 0.00 63 1020.4
20260831102006 60 243 0.9 6.1 0.00 0.02 0.00 63 1020.3
20260831101503 60 202 0.9 6.1 0.00 0.02 0.00 63 1006.0
20260831101005 60 257 1.7 6.1 0.00 0.02 0.00 64 1020.3
20260831100504 59 246 2.6 6.1 0.00 0.02 0.00 65 1020.3
20260831100006 59 240 1.7 3.5 0.00 0.02 0.00 66 1020.3
20260831100004 59 240 1.7 3.5 0.00 0.02 0.00 66 1006.0
20260831095504 59 240 1.7 3.5 0.00 0.02 0.00 66 1020.3
20260831095005 60 240 0.9 4.3 0.00 0.02 0.00 65 1020.3
20260831094505 60 259 1.7 6.1 0.00 0.02 0.00 66 1020.3
20260831094004 59 183 3.5 6.1 0.00 0.02 0.00 66 1020.3
20260831093505 59 220 1.7 4.3 0.00 0.02 0.00 67 1020.3
20260831093005 59 209 1.7 4.3 0.00 0.02 0.00 68 1020.3
20260831093003 59 209 0.9 4.3 0.00 0.02 0.00 68 1006.1
20260831092505 60 209 1.7 6.1 0.00 0.02 0.00 68 1020.3
20260831091504 59 211 1.7 5.2 0.00 0.02 0.00 68 1020.3
20260831091006 59 188 2.6 5.2 0.00 0.02 0.00 69 1020.3
20260831090506 59 202 2.6 5.2 0.00 0.02 0.00 70 1020.3
20260831090005 59 229 2.6 5.2 0.00 0.02 0.00 70 1020.3
20260831090003 59 229 2.6 5.2 0.00 0.02 0.00 70 1006.0
20260831085504 59 242 2.6 5.2 0.00 0.02 0.00 71 1020.3
20260831085006 58 200 1.7 3.5 0.00 0.02 0.00 71 1020.4
20260831084503 58 200 0.9 3.5 0.00 0.02 0.00 73 1006.2
20260831084005 57 200 1.7 3.5 0.00 0.02 0.00 74 1020.4
20260831083505 57 200 0.9 3.5 0.00 0.02 0.00 74 1020.4
20260831083007 57 200 0.0 3.5 0.00 0.02 0.00 74 1006.2
20260831082005 58 200 2.6 4.3 0.00 0.02 0.00 72 1020.5
20260831081505 58 200 2.6 3.5 0.00 0.02 0.00 73 1020.5
20260831081503 58 200 2.6 3.5 0.00 0.02 0.00 73 1006.3
20260831080504 57 200 1.7 2.6 0.00 0.02 0.00 75 1020.7
20260831080006 57 200 1.7 3.5 0.00 0.02 0.00 75 1020.7
20260831080003 57 200 0.9 3.5 0.00 0.02 0.00 75 1006.5
20260831075504 57 200 1.7 3.5 0.00 0.02 0.00 77 1020.7
20260831075006 56 200 1.7 3.5 0.00 0.02 0.00 77 1020.9
20260831074504 56 200 1.7 3.5 0.00 0.02 0.00 78 1021.0
20260831074006 57 200 1.7 3.5 0.00 0.02 0.00 79 1021.0
20260831073504 57 200 0.9 2.6 0.00 0.02 0.00 78 1020.9
20260831073009 57 200 0.9 3.5 0.00 0.02 0.00 79 1006.6
20260831073005 57 200 0.9 3.5 0.00 0.02 0.00 79 1020.8
20260831072504 57 200 1.7 3.5 0.00 0.02 0.00 79 1020.9
20260831072006 57 200 1.7 2.6 0.00 0.02 0.00 78 1020.7
20260831071504 57 200 1.7 4.3 0.00 0.02 0.00 78 1020.8
20260831071502 57 200 0.9 4.3 0.00 0.02 0.00 78 1006.5
20260831070505 57 237 0.9 3.5 0.00 0.02 0.00 79 1021.0
20260831070004 57 237 0.9 4.3 0.00 0.02 0.00 78 1006.8
20260831065504 58 237 2.6 4.3 0.00 0.02 0.00 78 1021.2
20260831065005 58 192 0.0 2.6 0.00 0.02 0.00 77 1021.2
20260831064506 58 192 0.0 2.6 0.00 0.02 0.00 77 1021.2
20260831064503 58 192 0.0 2.6 0.00 0.02 0.00 77 1006.9
20260831064005 58 192 0.9 1.7 0.00 0.02 0.00 76 1021.2
20260831063504 59 192 0.0 2.6 0.00 0.02 0.00 76 1021.4
20260831063008 59 192 0.9 4.3 0.00 0.02 0.00 74 1006.9
20260831063005 59 192 0.9 4.3 0.00 0.02 0.00 74 1021.2
20260831062505 60 192 1.7 6.1 0.00 0.02 0.00 73 1021.3
20260831062006 60 192 3.5 7.8 0.00 0.02 0.00 72 1021.4
20260831061505 59 151 3.5 9.6 0.00 0.02 0.00 73 1021.5
20260831061503 59 151 3.5 9.6 0.00 0.02 0.00 73 1007.0
20260831061005 59 173 7.0 9.6 0.00 0.02 0.00 76 1021.7
20260831060506 58 148 5.2 7.0 0.00 0.02 0.00 78 1021.9
20260831060007 58 191 3.5 5.2 0.01 0.02 0.00 79 1022.1
20260831060004 58 191 2.6 5.2 0.01 0.02 0.00 79 1007.7
20260831055006 58 189 2.6 7.0 0.02 0.02 0.02 80 1022.1
20260831054510 58 201 2.6 7.0 0.02 0.02 0.02 81 1007.6
20260831054506 58 201 2.6 7.0 0.02 0.02 0.02 81 1022.0
20260831054007 58 126 2.6 5.2 0.02 0.02 0.02 81 1021.8
20260831053505 58 126 1.7 3.5 0.02 0.02 0.02 82 1021.6
20260831053006 58 126 2.6 3.5 0.02 0.02 0.02 82 1021.6
20260831053004 58 126 1.7 3.5 0.02 0.02 0.02 82 1007.1
20260831051508 59 126 3.5 8.7 0.02 0.02 0.02 80 1007.3
20260831051506 59 126 4.3 8.7 0.02 0.02 0.02 80 1021.7
20260831051007 60 127 7.8 8.7 0.02 0.02 0.02 78 1021.9
20260831050505 61 296 1.7 4.3 0.02 0.02 0.02 74 1022.7
20260831050006 62 296 2.6 5.2 0.01 0.01 0.01 72 1022.6
20260831050004 62 296 2.6 5.2 0.01 0.01 0.01 72 1008.2
20260831045504 63 199 0.9 9.6 0.00 0.00 0.00 68 1023.3
20260831045005 64 249 2.6 12.2 0.00 0.00 0.00 64 1023.4
20260831044506 64 203 4.3 11.3 0.00 0.00 0.00 61 1023.4
20260831044504 64 203 4.3 11.3 0.00 0.00 0.00 61 1009.1
20260831044006 64 257 6.1 12.2 0.00 0.00 0.00 60 1023.2
20260831043506 64 240 4.3 12.2 0.00 0.00 0.00 63 1022.9
20260831043003 63 192 5.2 9.6 0.00 0.00 0.00 63 1008.1
20260831042505 62 226 5.2 8.7 0.00 0.00 0.00 67 1022.2
20260831041506 61 186 2.6 7.0 0.00 0.00 0.00 68 1021.7
20260831041504 61 186 2.6 7.0 0.00 0.00 0.00 68 1007.2
20260831041006 61 191 3.5 7.0 0.00 0.00 0.00 71 1021.6
20260831040505 60 184 2.6 4.3 0.00 0.00 0.00 73 1021.5
20260831040008 60 184 0.9 3.5 0.00 0.00 0.00 74 1021.5
20260831040004 60 184 0.9 3.5 0.00 0.00 0.00 74 1007.0
20260831035505 60 184 2.6 3.5 0.00 0.00 0.00 74 1021.5
20260831035006 60 184 1.7 3.5 0.00 0.00 0.00 74 1021.6
20260831034505 61 223 0.9 3.5 0.00 0.00 0.00 74 1021.5
20260831034007 61 223 1.7 3.5 0.00 0.00 0.00 74 1021.5
20260831033505 61 200 1.7 4.3 0.00 0.00 0.00 73 1021.4
20260831033006 61 200 1.7 4.3 0.00 0.00 0.00 74 1021.4
20260831033004 61 200 1.7 4.3 0.00 0.00 0.00 74 1006.9
20260831032505 61 200 1.7 3.5 0.00 0.00 0.00 74 1021.3
20260831032007 61 200 2.6 3.5 0.00 0.00 0.00 74 1021.2
20260831031505 61 200 1.7 3.5 0.00 0.00 0.00 75 1021.3
20260831031503 61 200 1.7 3.5 0.00 0.00 0.00 75 1006.8
20260831030505 61 204 1.7 4.3 0.00 0.00 0.00 76 1021.3
20260831030008 61 204 2.6 4.3 0.00 0.00 0.00 76 1021.3
20260831030005 61 204 1.7 4.3 0.00 0.00 0.00 76 1006.8
20260831025505 61 204 0.9 4.3 0.00 0.00 0.00 76 1021.1
20260831025005 61 204 1.7 4.3 0.00 0.00 0.00 76 1021.0
20260831024505 61 204 1.7 2.6 0.00 0.00 0.00 75 1020.8
20260831024005 61 204 0.9 3.5 0.00 0.00 0.00 75 1020.7
20260831023504 61 204 0.9 3.5 0.00 0.00 0.00 75 1020.7
20260831023004 61 204 0.9 2.6 0.00 0.00 0.00 76 1006.2
20260831022505 61 204 1.7 2.6 0.00 0.00 0.00 77 1020.6
20260831022006 61 204 0.9 2.6 0.00 0.00 0.00 77 1020.3
20260831021505 61 204 0.9 2.6 0.00 0.00 0.00 75 1020.3
20260831021503 61 204 0.9 2.6 0.00 0.00 0.00 75 1005.7
20260831021006 61 204 0.0 1.7 0.00 0.00 0.00 74 1020.1
20260831020505 62 204 0.9 1.7 0.00 0.00 0.00 73 1020.1
20260831020007 62 204 0.9 1.7 0.00 0.00 0.00 74 1020.1
20260831020004 62 204 0.0 1.7 0.00 0.00 0.00 74 1005.5
20260831015505 62 204 0.9 1.7 0.00 0.00 0.00 75 1020.0
20260831015005 62 204 0.9 1.7 0.00 0.00 0.00 74 1019.9
20260831014505 62 204 0.9 2.6 0.00 0.00 0.00 73 1019.9
20260831014006 63 204 0.9 2.6 0.00 0.00 0.00 73 1019.8
20260831013504 63 204 1.7 2.6 0.00 0.00 0.00 72 1019.9
20260831013004 64 204 0.9 2.6 0.00 0.00 0.00 71 1005.2
20260831012505 64 204 0.9 1.7 0.00 0.00 0.00 71 1019.9
20260831012006 64 204 0.9 2.6 0.00 0.00 0.00 71 1019.9
20260831011504 64 204 0.9 4.3 0.00 0.00 0.00 71 1020.0
20260831011006 64 204 2.6 4.3 0.00 0.00 0.00 71 1020.0
20260831010506 64 204 1.7 5.2 0.00 0.00 0.00 70 1020.1
20260831010007 64 204 1.7 5.2 0.00 0.00 0.00 70 1020.1
20260831010004 64 204 1.7 5.2 0.00 0.00 0.00 70 1005.4
20260831005504 64 234 1.7 4.3 0.00 0.00 0.00 70 1020.2
20260831004505 64 200 1.7 2.6 0.00 0.00 0.00 71 1020.1
20260831004503 64 200 1.7 2.6 0.00 0.00 0.00 71 1005.4
20260831004006 64 200 1.7 4.3 0.00 0.00 0.00 70 1020.3
20260831003003 64 183 1.7 3.5 0.00 0.00 0.00 70 1005.6
20260831002505 63 325 1.7 3.5 0.00 0.00 0.00 70 1020.4
20260831002006 63 325 1.7 1.7 0.00 0.00 0.00 71 1020.5
20260831001505 63 325 0.0 1.7 0.00 0.00 0.00 71 1020.5
20260831001006 63 325 0.9 8.7 0.00 0.00 0.00 71 1020.4
20260831000507 63 325 3.5 9.6 0.00 0.00 0.00 71 1020.5
20260831000007 64 299 5.2 9.6 0.00 0.00 0.00 70 1021.0
20260831000005 64 299 4.3 9.6 0.00 0.00 0.00 70 1006.0
20260830235505 63 117 2.6 5.2 0.00 0.00 0.00 70 1021.1
20260830234506 62 90 2.6 3.5 0.00 0.00 0.00 74 1020.8
20260830234504 62 90 1.7 3.5 0.00 0.00 0.00 74 1005.8
20260830234005 62 320 0.0 2.6 0.00 0.00 0.00 73 1020.9
20260830233505 62 320 1.7 3.5 0.00 0.00 0.00 74 1021.0
20260830233006 61 320 1.7 5.2 0.00 0.00 0.00 74 1021.1
20260830233003 61 320 0.9 5.2 0.00 0.00 0.00 74 1006.1
20260830232504 62 346 2.6 5.2 0.00 0.00 0.00 73 1021.2
20260830232002 62 305 1.7 4.3 0.00 0.00 0.00 73 1021.3
20260830231505 62 305 1.7 7.0 0.00 0.00 0.00 72 1006.2
20260830231005 62 319 4.3 10.4 0.00 0.00 0.00 70 1021.4
20260830230505 63 293 2.6 12.2 0.00 0.00 0.00 68 1021.3
20260830230006 64 311 9.6 13.9 0.00 0.00 0.00 64 1021.3
20260830230004 64 311 8.7 13.9 0.00 0.00 0.00 64 1006.3
20260830225504 65 308 8.7 11.3 0.00 0.00 0.00 60 1021.4
20260830224506 65 291 4.3 7.8 0.00 0.00 0.00 55 1021.2
20260830224504 65 291 4.3 7.8 0.00 0.00 0.00 55 1006.1
20260830223504 66 311 5.2 13.9 0.00 0.00 0.00 53 1020.9
20260830223006 66 329 6.1 16.5 0.00 0.00 0.00 54 1020.9
20260830223003 66 329 5.2 16.5 0.00 0.00 0.00 54 1005.7
20260830221504 67 290 11.3 20.9 0.00 0.00 0.00 48 1005.4
20260830221006 68 311 10.4 20.9 0.00 0.00 0.00 47 1020.7
20260830220506 68 301 12.2 21.7 0.00 0.00 0.00 47 1020.7
20260830220008 68 301 12.2 25.2 0.00 0.00 0.00 46 1020.4
20260830220003 68 301 12.2 25.2 0.00 0.00 0.00 46 1005.1
20260830215506 69 319 14.8 25.2 0.00 0.00 0.00 45 1020.2
20260830215006 71 298 13.0 22.6 0.00 0.00 0.00 44 1019.8
20260830214505 75 330 8.7 37.4 0.00 0.00 0.00 41 1019.8
20260830214005 79 319 3.5 7.8 0.00 0.00 0.00 34 1019.4
20260830213505 79 224 1.7 7.0 0.00 0.00 0.00 34 1018.8
20260830213005 79 256 1.7 3.5 0.00 0.00 0.00 32 1018.8
20260830212505 79 256 0.9 5.2 0.00 0.00 0.00 32 1018.8
20260830212005 79 256 0.9 5.2 0.00 0.00 0.00 33 1018.7
20260830211504 80 207 1.7 3.5 0.00 0.00 0.00 34 1018.6
20260830211005 80 254 1.7 4.3 0.00 0.00 0.00 32 1018.5
20260830210505 80 254 1.7 7.0 0.00 0.00 0.00 33 1018.6
20260830210006 80 285 3.5 7.0 0.00 0.00 0.00 32 1018.5
20260830210004 80 285 3.5 7.0 0.00 0.00 0.00 32 1003.0
20260830205505 80 247 2.6 5.2 0.00 0.00 0.00 33 1018.6
20260830205005 80 256 2.6 4.3 0.00 0.00 0.00 33 1018.8
20260830204505 79 273 1.7 6.1 0.00 0.00 0.00 33 1018.8
20260830204503 79 273 1.7 6.1 0.00 0.00 0.00 33 1003.4
20260830204005 79 213 2.6 7.8 0.00 0.00 0.00 33 1018.8
20260830203505 79 199 4.3 7.8 0.00 0.00 0.00 33 1018.6
20260830203009 79 207 2.6 6.1 0.00 0.00 0.00 31 1003.2
20260830203007 79 207 2.6 6.1 0.00 0.00 0.00 31 1018.6
20260830202505 79 227 2.6 7.0 0.00 0.00 0.00 34 1018.7
20260830201504 80 163 4.3 9.6 0.00 0.00 0.00 33 1018.7
20260830201006 80 148 7.0 9.6 0.00 0.00 0.00 33 1018.6
20260830200505 80 164 2.6 8.7 0.00 0.00 0.00 33 1018.6
20260830200006 80 317 4.3 8.7 0.00 0.00 0.00 31 1018.5
20260830200004 80 317 3.5 8.7 0.00 0.00 0.00 31 1003.1
20260830194505 80 300 3.5 7.0 0.00 0.00 0.00 31 1018.7
20260830194503 80 300 2.6 7.0 0.00 0.00 0.00 31 1003.3
20260830194006 80 238 4.3 7.0 0.00 0.00 0.00 31 1018.8
20260830193505 81 290 4.3 9.6 0.00 0.00 0.00 31 1018.6
20260830193006 81 292 5.2 9.6 0.00 0.00 0.00 29 1018.7
20260830193003 81 292 5.2 9.6 0.00 0.00 0.00 29 1003.2
20260830192504 81 272 3.5 7.8 0.00 0.00 0.00 30 1018.7
20260830192005 81 262 3.5 9.6 0.00 0.00 0.00 30 1018.7
20260830191505 82 259 6.1 9.6 0.00 0.00 0.00 30 1018.8
20260830191006 82 144 5.2 10.4 0.00 0.00 0.00 30 1018.8
20260830190012 81 274 3.5 8.7 0.00 0.00 0.00 29 1003.6
20260830190007 81 274 4.3 8.7 0.00 0.00 0.00 29 1019.1
20260830185505 80 267 0.9 7.0 0.00 0.00 0.00 31 1019.1
20260830185006 80 247 1.7 7.0 0.00 0.00 0.00 32 1019.1
20260830184504 80 65 1.7 5.2 0.00 0.00 0.00 32 1019.0
20260830184005 80 329 2.6 7.0 0.00 0.00 0.00 33 1019.1
20260830183006 79 287 1.7 9.6 0.00 0.00 0.00 35 1019.2
20260830183003 79 287 1.7 9.6 0.00 0.00 0.00 35 1003.6
20260830182505 79 304 5.2 10.4 0.00 0.00 0.00 34 1019.2
20260830182006 79 297 5.2 12.2 0.00 0.00 0.00 35 1019.3
20260830181504 79 301 7.0 11.3 0.00 0.00 0.00 36 1019.4
20260830180505 79 256 4.3 7.8 0.00 0.00 0.00 34 1019.5
20260830180008 78 257 2.6 7.8 0.00 0.00 0.00 35 1003.9
20260830180006 78 257 3.5 7.8 0.00 0.00 0.00 35 1019.5
20260830174505 78 287 4.3 13.9 0.00 0.00 0.00 36 1019.7
20260830174503 78 287 3.5 13.9 0.00 0.00 0.00 36 1004.2
20260830174007 78 279 4.3 13.9 0.00 0.00 0.00 39 1019.8
20260830173505 77 279 5.2 9.6 0.00 0.00 0.00 37 1020.0
20260830173006 77 201 3.5 10.4 0.00 0.00 0.00 37 1004.5
20260830172504 77 294 3.5 10.4 0.00 0.00 0.00 40 1020.0
20260830172005 76 246 3.5 13.9 0.00 0.00 0.00 40 1020.0
20260830171506 76 306 6.1 15.6 0.00 0.00 0.00 39 1020.1
20260830171504 76 306 6.1 15.6 0.00 0.00 0.00 39 1004.6
20260830171005 76 310 9.6 15.6 0.00 0.00 0.00 40 1020.1
20260830170506 77 292 5.2 12.2 0.00 0.00 0.00 39 1020.3
20260830170007 76 289 4.3 11.3 0.00 0.00 0.00 41 1020.2
20260830170003 76 289 3.5 11.3 0.00 0.00 0.00 41 1004.6
20260830165505 76 299 6.1 11.3 0.00 0.00 0.00 38 1020.2
20260830165006 76 282 4.3 8.7 0.00 0.00 0.00 41 1020.2
20260830164508 75 308 3.5 8.7 0.00 0.00 0.00 42 1004.6
20260830164505 75 308 3.5 8.7 0.00 0.00 0.00 42 1020.1
20260830164006 74 248 4.3 7.0 0.00 0.00 0.00 42 1020.0
20260830163504 74 246 3.5 7.8 0.00 0.00 0.00 45 1020.0
20260830163007 72 250 3.5 7.8 0.00 0.00 0.00 46 1020.0
20260830163003 72 250 2.6 7.8 0.00 0.00 0.00 46 1004.5
20260830162505 71 266 4.3 7.8 0.00 0.00 0.00 47 1020.1
20260830162006 71 231 1.7 5.2 0.00 0.00 0.00 49 1020.1
20260830161504 70 224 0.9 4.3 0.00 0.00 0.00 52 1004.7
20260830161006 70 262 0.9 6.1 0.00 0.00 0.00 52 1020.1